Temperature
17 17 17 17 17 17 17 17 17 17 17 17 17 17 17 17 17 17 17 17 17 17 17 17 16 16 16 16 16 16 16 16 16 16 16 16 16 16 16 16 16 15 16
17 17 17 17 17 17 17 17 17 17 17 17 17 17 17 17 17 16 16 16 16 16 16 16 16 16 16 16 16 16 16 16 16 16 16 16 16 16 16 16 16 15 15
16 16 17 17 16 16 16 16 16 16 16 16 17 17 17 17 16 16 16 16 16 16 16 16 16 16 16 16 16 16 16 16 16 16 16 15 15 15 15 15 15 15 15
16 16 16 16 16 16 16 16 16 16 16 16 16 16 16 16 16 16 16 16 16 16 16 16 16 16 16 16 16 16 15 16 16 16 15 15 15 15 15 15 15 15 15
16 16 16 16 16 16 16 16 16 16 16 16 16 16 16 16 16 16 16 16 16 15 15 15 15 16 15 15 15 15 15 15 15 15 15 15 15 15 15 15 15 15 15
15 15 15 15 16 16 16 16 16 16 16 16 16 16 16 16 16 15 15 15 15 15 15 15 15 15 15 15 15 15 15 15 15 15 15 14 14 15 15 15 15 15 14
15 15 15 15 15 15 15 15 15 16 16 16 16 16 16 16 15 15 15 15 15 15 15 15 15 15 15 15 15 15 15 15 15 14 14 14 14 14 14 14 14 14 14
14 15 15 15 15 15 15 15 15 15 15 15 15 15 15 15 15 15 15 15 15 15 15 15 15 15 15 15 15 15 15 15 14 14 14 14 14 14 14 14 14 14 14
14 14 14 14 15 15 15 15 15 15 15 15 15 15 15 15 15 15 15 15 15 15 15 15 15 15 15 15 15 14 14 14 14 14 14 14 14 14 14 14 14 14 14
14 14 14 14 14 14 15 15 15 15 15 15 15 15 15 15 15 15 15 15 15 15 15 15 14 15 14 14 14 14 14 14 14 14 13 13 14 14 13 13 13 13 13
14 14 14 14 14 14 14 14 15 15 15 15 15 15 15 15 15 15 15 15 14 14 14 14 14 14 14 14 14 14 14 13 13 13 13 13 13 13 13 13 13 13 13
13 13 13 13 14 14 14 14 14 14 14 14 14 14 14 14 14 14 14 14 14 14 14 14 14 14 14 14 13 13 13 13 13 13 13 13 13 13 13 13 13 12 12
13 13 13 13 13 14 14 14 14 14 14 14 14 14 14 14 14 14 14 14 14 14 14 13 13 13 13 13 13 13 13 13 13 13 13 13 13 13 12 12 12 12 12
13 13 13 13 13 13 13 14 14 14 14 13 13 13 13 13 13 13 13 13 13 13 13 13 13 13 13 13 13 12 12 12 12 12 12 12 12 12 12 12 12 12 12
13 13 13 13 13 13 13 13 13 13 13 13 13 13 13 13 13 13 13 13 13 13 13 13 12 12 12 12 12 12 12 12 12 12 12 12 12 12 11 11 11 11 11
13 13 13 13 13 13 13 13 13 13 13 13 13 13 13 12 12 12 12 12 12 12 12 12 12 12 12 12 12 12 12 11 11 11 11 11 11 11 11 11 11 11 11
13 12 12 12 12 12 12 12 12 12 12 12 12 12 12 12 12 12 12 12 12 12 12 12 11 11 11 11 11 11 11 11 11 11 11 11 11 11 11 11 11 10 10
12 12 12 12 12 12 12 12 12 12 12 12 12 12 11 11 11 11 11 11 11 11 11 11 11 11 11 10 10 10 10 10 10 10 10 10 10 10 10 10 10 10 10
12 12 12 12 12 12 12 11 11 11 11 11 11 11 11 11 11 11 11 11 11 11 11 11 10 10 10 10 10 10 10 10 10 10 9 9 9 9 9 9 9 9 9
12 12 11 11 11 11 11 11 11 11 11 11 11 11 11 11 11 10 10 10 10 10 10 10 10 10 10 9 9 9 10 10 9 9 9 9 9 9 9 9 9 9 9
11 11 11 11 11 11 11 11 11 10 10 10 10 10 10 10 10 10 10 10 10 10 10 9 9 9 9 9 9 8 9 9 9 8 8 8 8 8 8 8 8 8 8
11 11 11 11 11 11 11 11 10 10 10 10 10 10 10 10 10 10 9 9 9 9 9 9 9 9 8 8 8 7 7 8 8 8 8 8 7 7 8 8 7 7 7
10 11 10 10 11 10 10 10 10 10 10 10 9 10 9 9 9 9 9 9 9 9 9 9 8 8 8 8 7 7 7 7 7 7 7 7 7 7 7 7 7 7 7
10 10 10 10 10 10 10 10 10 10 10 10 9 9 9 9 9 9 9 9 9 8 8 8 8 8 8 7 7 7 6 6 5 6 6 7 7 6 6 7 7 7 6
10 10 10 10 10 10 9 9 9 9 9 9 9 9 9 8 8 8 8 8 8 8 8 8 8 7 7 7 7 6 6 6 5 5 5 6 6 6 6 6 6 6 6
9 9 10 9 9 9 9 9 9 9 9 9 9 9 8 8 8 8 8 8 8 8 8 7 7 7 7 6 6 6 6 5 5 5 4 5 5 5 6 6 6 5 5
Wind_Speed
9 11 12 12 13 13 13 13 12 12 11 11 11 11 11 11 10 10 9 9 8 8 8 8 8 8 8 8 8 7 7 6 6 6 6 6 5 5 5 4 2 3 5
11 12 13 12 13 13 13 13 12 12 11 11 11 11 11 10 10 9 9 8 8 8 8 8 8 8 8 8 7 7 7 6 6 6 5 5 5 4 4 3 3 4 3
11 13 14 13 13 13 13 13 13 12 12 11 11 11 11 10 10 9 8 8 8 8 7 7 8 7 7 7 7 7 7 7 6 5 1 2 4 4 4 3 2 2 3
11 12 14 14 14 14 14 13 13 13 12 12 11 11 10 10 10 9 8 8 8 7 7 7 7 7 7 7 7 7 7 7 6 2 1 3 3 5 4 3 2 2 2
11 12 13 14 14 14 14 13 13 12 12 11 11 11 10 10 10 9 9 9 8 8 7 7 7 7 6 6 6 6 6 5 4 1 3 2 3 4 3 3 3 3 3
11 12 13 13 13 14 13 13 13 12 12 11 11 10 10 10 10 10 9 9 9 8 8 8 8 7 7 6 6 5 5 4 1 2 2 2 3 4 4 3 3 3 3
11 11 13 13 13 13 13 13 13 12 12 11 11 10 10 10 10 10 9 9 9 9 8 8 7 7 6 6 5 5 4 2 1 2 2 2 4 5 4 4 3 3 3
10 11 12 13 13 13 13 13 12 12 11 11 10 10 10 10 10 9 9 8 8 8 8 7 7 6 6 5 5 5 4 1 1 1 1 2 4 4 4 4 4 3 3
10 10 10 12 12 12 12 12 12 11 11 11 11 11 10 10 10 9 9 8 8 7 7 7 6 6 5 5 5 5 4 2 1 1 2 2 4 4 4 4 4 4 4
8 9 9 10 10 11 11 12 11 11 11 11 11 11 10 10 10 9 8 8 8 7 7 6 6 6 5 5 4 4 2 0 1 1 2 3 4 4 4 4 4 4 5
8 8 8 9 9 9 10 11 11 11 10 10 10 10 8 7 7 7 8 8 8 7 7 6 6 5 4 4 4 2 0 1 1 2 3 5 5 4 5 5 5 5 5
10 8 7 8 8 8 8 8 8 8 8 8 7 7 6 6 6 6 8 8 7 7 6 6 5 3 1 1 1 0 1 1 1 1 3 5 5 5 5 5 6 6 6
10 8 8 8 8 7 6 6 6 6 6 7 7 7 6 6 5 4 4 4 4 4 4 3 3 3 3 2 2 2 2 2 1 1 3 5 5 6 6 7 7 7 7
10 9 8 8 8 7 6 6 6 5 5 5 6 6 5 4 4 3 3 3 3 2 2 2 2 3 3 3 2 2 2 2 2 2 3 5 5 6 6 7 8 8 8
10 9 9 9 8 8 7 5 5 5 5 6 6 5 5 4 3 3 3 2 2 2 2 2 2 2 2 3 2 2 2 2 2 2 2 4 5 6 7 8 8 9 9
10 9 9 9 9 8 7 6 5 6 6 6 5 6 5 4 4 3 3 2 2 2 2 2 2 2 2 2 2 2 2 2 2 3 3 3 4 6 7 9 10 10 11
10 10 9 9 9 9 8 7 6 6 6 5 5 6 5 4 4 3 2 2 2 2 2 2 2 2 2 2 2 2 2 2 2 3 3 4 4 4 6 8 10 10 11
10 10 10 8 9 9 8 7 6 6 6 5 5 5 5 5 4 3 2 2 2 2 2 2 2 2 2 2 2 2 2 2 2 3 3 4 4 5 6 7 9 10 11
11 11 10 10 10 9 8 7 6 6 5 5 5 4 5 4 4 3 2 2 2 2 2 2 2 2 2 2 2 3 3 2 2 2 3 4 4 5 6 7 8 9 11
9 10 11 10 9 9 8 7 6 5 5 4 4 4 5 4 4 3 2 2 1 1 1 1 2 2 2 2 2 3 3 2 2 3 4 4 5 6 7 8 8 8 10
9 10 11 11 11 9 8 7 6 5 5 4 4 4 4 4 4 3 2 2 1 1 1 1 1 2 2 3 2 2 2 2 2 3 4 4 5 6 7 8 8 8 8
10 11 12 12 12 11 8 7 5 5 4 4 4 4 4 4 3 2 2 1 1 1 1 1 1 1 1 2 2 3 2 2 1 3 3 4 6 6 7 8 9 9 9
9 11 11 12 12 12 10 7 6 5 4 4 4 4 4 4 3 3 2 2 1 1 0 0 0 1 1 1 2 2 2 3 5 3 4 4 6 6 7 8 9 10 10
8 8 10 11 12 12 11 10 10 7 6 6 5 4 4 4 4 3 3 2 1 1 1 0 0 1 1 1 1 1 2 3 3 4 4 5 7 8 8 8 9 9 10
7 7 8 11 11 12 11 11 10 8 6 5 5 6 5 4 4 3 3 2 2 1 1 1 0 1 1 1 1 2 2 3 4 5 6 7 7 6 7 8 8 8 9
6 6 7 10 11 11 11 11 10 10 8 8 7 6 5 4 3 4 3 3 2 2 2 1 1 1 1 1 2 2 2 3 4 5 6 9 9 8 9 7 7 7 8
Wind_Direction
154 152 146 147 142 138 134 132 130 127 126 127 127 125 122 120 119 116 116 114 109 108 108 107 103 99 94 91 87 81 81 80 80 78 77 76 77 74 72 64 44 74 64
148 149 144 145 142 137 134 130 127 123 121 123 125 125 123 120 117 116 114 111 110 107 106 105 100 97 93 91 89 84 81 77 73 74 80 91 82 69 65 59 27 47 55
144 146 146 140 138 134 131 127 123 120 117 117 120 121 121 118 116 114 111 108 105 103 102 99 96 93 90 88 86 82 79 75 71 68 95 96 87 71 53 55 62 54 46
142 144 143 136 135 132 129 126 122 119 116 114 113 113 114 113 113 110 106 104 103 102 99 94 91 89 88 86 84 81 78 75 69 53 62 59 66 69 45 33 41 32 27
141 141 135 134 133 130 127 125 122 119 116 113 111 109 106 105 105 103 101 97 95 95 96 94 90 88 88 89 89 87 82 75 69 46 51 44 46 56 32 18 20 19 17
142 139 135 133 132 130 126 123 121 119 116 113 111 108 105 102 99 97 94 91 88 86 85 86 85 83 80 82 85 86 83 74 90 59 45 32 35 39 19 12 4 358 352
140 137 136 131 131 130 127 125 122 119 118 115 113 110 106 102 99 95 92 88 84 81 80 79 77 78 76 74 76 78 73 70 26 46 31 32 34 23 11 7 359 349 344
139 137 137 130 127 128 128 125 122 120 119 116 113 109 106 102 97 94 90 86 83 78 74 72 68 68 70 71 70 69 62 46 24 26 23 27 27 9 1 358 355 349 343
141 139 140 140 133 127 126 125 123 121 118 115 112 107 103 100 97 93 89 85 81 77 72 68 66 66 65 66 65 65 62 30 322 13 6 19 17 357 351 349 344 336 326
144 144 145 145 143 141 132 120 119 116 115 113 108 104 102 102 99 93 89 82 80 76 73 69 66 64 62 63 63 62 60 289 11 9 3 18 5 347 344 337 331 324 319
152 150 149 148 145 142 135 129 123 116 114 116 111 106 109 110 104 96 82 80 78 74 70 66 63 59 62 73 64 49 341 345 10 6 9 8 355 339 333 335 328 321 319
166 159 158 154 150 145 139 138 133 129 127 123 120 116 110 104 97 96 88 82 81 78 77 66 58 56 30 50 66 321 321 332 339 5 15 7 350 342 339 336 332 326 316
171 164 164 159 156 150 145 139 132 127 124 121 119 118 114 107 103 96 93 90 87 82 72 64 50 37 27 19 1 354 341 325 325 354 16 10 351 342 338 337 334 328 322
175 172 168 163 159 154 146 137 135 132 128 123 122 123 119 108 100 93 87 84 78 69 55 46 41 38 27 18 4 353 341 320 317 331 9 10 351 343 338 336 333 329 324
180 176 173 170 164 156 147 141 139 136 133 128 124 119 118 116 112 104 93 82 75 64 53 34 34 32 19 15 5 349 340 326 319 316 338 9 351 343 338 333 329 328 325
182 179 175 174 169 160 156 150 143 136 131 126 121 119 121 116 115 113 105 88 73 59 39 28 29 14 10 9 359 353 334 322 320 313 316 331 349 339 334 331 328 325 324
183 178 176 174 169 165 160 153 142 137 135 128 122 124 121 118 120 117 106 92 68 54 40 33 32 17 12 4 357 353 342 326 321 324 324 323 331 344 337 331 330 328 325
184 181 178 172 169 166 158 150 141 139 137 131 129 129 126 123 123 117 107 87 64 52 42 38 16 14 6 352 346 344 331 321 319 329 334 333 331 334 340 342 336 330 326
187 183 179 174 171 166 156 146 141 138 136 134 134 132 132 130 130 123 106 91 82 62 46 37 24 5 356 349 339 332 327 313 316 318 329 334 335 330 327 332 330 327 325
186 183 179 174 170 162 153 145 139 139 140 137 139 138 141 136 137 126 114 104 90 83 58 38 36 17 356 341 326 322 316 312 303 316 322 328 330 330 328 327 324 325 327
182 182 180 175 170 165 162 162 160 160 156 152 147 146 149 146 143 134 125 120 111 97 60 39 31 19 7 343 317 321 303 284 296 309 312 319 322 325 324 325 324 323 322
184 184 185 182 177 176 176 170 165 156 158 155 149 151 158 157 153 148 145 143 138 131 96 54 23 355 1 351 324 312 309 287 295 308 308 312 317 321 320 322 321 319 319
188 189 188 185 182 181 173 158 144 141 146 160 167 166 170 170 164 163 166 156 154 176 171 67 327 319 334 351 347 320 307 305 316 292 307 308 315 317 316 321 320 319 317
194 190 191 187 185 180 175 173 170 176 179 183 175 172 170 174 173 175 175 174 173 179 184 208 281 291 281 310 339 334 309 304 299 303 300 306 314 313 314 315 315 316 315
190 185 187 187 185 181 182 183 183 186 184 171 168 171 172 173 178 180 180 180 185 189 192 202 220 251 268 280 292 299 291 286 279 287 299 308 312 311 313 310 308 312 315
185 181 180 186 185 183 185 187 189 187 182 174 175 176 179 179 182 184 186 187 192 193 196 208 220 230 246 258 270 273 280 283 294 293 293 303 308 308 308 303 303 310 316
Height
1510 1512 1514 1516 1518 1520 1521 1523 1524 1525 1526 1528 1528 1529 1530 1530 1531 1531 1532 1532 1532 1533 1533 1533 1533 1533 1533 1533 1533 1533 1533 1533 1532 1532 1532 1532 1532 1531 1531 1530 1530 1530 1530
1509 1512 1513 1516 1518 1520 1521 1523 1524 1526 1527 1528 1529 1530 1530 1531 1531 1532 1532 1532 1533 1533 1533 1533 1533 1533 1533 1533 1533 1533 1533 1533 1533 1533 1533 1532 1532 1531 1531 1530 1530 1530 1529
1509 1511 1513 1515 1518 1520 1521 1523 1524 1526 1527 1528 1529 1530 1530 1531 1531 1532 1532 1533 1533 1533 1533 1534 1534 1534 1534 1533 1533 1533 1533 1533 1533 1533 1533 1533 1532 1531 1531 1530 1530 1529 1529
1509 1511 1513 1515 1518 1519 1521 1523 1524 1526 1527 1528 1529 1530 1531 1531 1532 1532 1532 1533 1533 1533 1534 1534 1534 1534 1534 1533 1533 1533 1533 1533 1532 1532 1533 1533 1532 1531 1530 1530 1529 1529 1528
1509 1512 1513 1515 1517 1519 1521 1523 1524 1526 1527 1528 1529 1530 1530 1531 1531 1532 1532 1533 1533 1533 1533 1534 1534 1533 1533 1533 1533 1533 1532 1532 1532 1532 1532 1532 1531 1530 1529 1529 1529 1528 1528
1509 1512 1513 1515 1517 1519 1521 1523 1524 1525 1527 1528 1529 1530 1530 1531 1531 1532 1532 1532 1533 1533 1533 1533 1533 1533 1533 1533 1532 1532 1532 1532 1532 1532 1531 1531 1530 1529 1529 1528 1528 1527 1527
1509 1511 1513 1515 1517 1519 1521 1522 1524 1525 1526 1528 1529 1529 1530 1531 1531 1531 1532 1532 1532 1533 1533 1533 1532 1532 1532 1532 1532 1531 1531 1531 1531 1531 1530 1530 1529 1528 1528 1527 1526 1526 1525
1509 1511 1513 1515 1517 1519 1521 1522 1524 1525 1526 1527 1528 1529 1530 1530 1531 1531 1531 1532 1532 1532 1532 1532 1532 1531 1531 1531 1531 1530 1530 1530 1530 1529 1529 1528 1528 1527 1526 1525 1525 1524 1524
1509 1511 1513 1515 1517 1519 1520 1522 1523 1524 1525 1526 1527 1528 1529 1530 1530 1530 1531 1531 1531 1531 1531 1531 1531 1531 1530 1530 1529 1529 1529 1529 1529 1528 1528 1527 1526 1526 1525 1524 1523 1523 1522
1508 1510 1512 1515 1516 1518 1520 1521 1523 1524 1525 1526 1527 1528 1528 1529 1529 1530 1530 1530 1530 1530 1530 1530 1530 1529 1529 1529 1528 1528 1528 1528 1528 1527 1527 1526 1525 1524 1523 1522 1522 1521 1520
1507 1509 1512 1513 1515 1517 1519 1520 1522 1523 1524 1525 1526 1527 1528 1528 1528 1529 1529 1529 1529 1529 1529 1529 1529 1528 1528 1528 1527 1527 1526 1526 1526 1525 1525 1524 1523 1522 1521 1521 1520 1519 1518
1506 1508 1510 1512 1514 1516 1518 1519 1521 1522 1523 1524 1525 1526 1526 1527 1527 1528 1528 1528 1528 1528 1528 1528 1527 1527 1527 1526 1526 1526 1525 1525 1524 1524 1523 1522 1521 1520 1520 1519 1518 1517 1516
1505 1506 1509 1511 1513 1515 1516 1518 1520 1521 1522 1523 1524 1524 1525 1526 1526 1527 1527 1527 1527 1527 1527 1526 1526 1526 1525 1525 1525 1524 1524 1523 1523 1522 1521 1520 1519 1518 1517 1516 1515 1514 1513
1503 1505 1507 1509 1511 1513 1515 1517 1518 1520 1521 1522 1523 1523 1524 1524 1525 1525 1525 1526 1526 1525 1525 1525 1525 1524 1524 1523 1523 1523 1522 1521 1521 1520 1519 1518 1517 1516 1515 1514 1513 1512 1511
1501 1503 1505 1508 1510 1512 1514 1516 1517 1518 1520 1521 1521 1522 1522 1523 1524 1524 1524 1524 1524 1524 1524 1524 1523 1523 1523 1522 1522 1521 1520 1519 1518 1517 1516 1515 1515 1514 1512 1511 1510 1509 1508
1499 1501 1503 1506 1508 1510 1512 1514 1516 1517 1518 1519 1520 1521 1521 1522 1522 1523 1523 1523 1523 1523 1523 1522 1522 1521 1521 1520 1520 1519 1518 1517 1516 1515 1514 1513 1512 1511 1510 1508 1507 1506 1504
1497 1499 1501 1504 1506 1508 1510 1512 1514 1516 1517 1518 1519 1519 1520 1521 1521 1522 1522 1522 1522 1522 1521 1521 1521 1520 1519 1519 1518 1517 1516 1515 1514 1513 1512 1511 1509 1508 1506 1505 1504 1502 1501
1494 1497 1499 1501 1504 1506 1508 1510 1512 1514 1515 1517 1517 1518 1519 1519 1520 1520 1520 1520 1520 1520 1520 1520 1519 1519 1518 1517 1516 1515 1514 1513 1512 1511 1510 1508 1507 1505 1504 1502 1500 1499 1497
1491 1494 1496 1499 1501 1504 1506 1508 1510 1512 1514 1515 1516 1517 1517 1518 1518 1519 1519 1519 1519 1519 1519 1518 1518 1517 1517 1516 1515 1514 1512 1511 1510 1509 1508 1506 1505 1503 1501 1499 1497 1495 1493
1488 1491 1494 1496 1499 1501 1504 1506 1508 1510 1512 1513 1514 1515 1516 1516 1517 1517 1517 1518 1517 1517 1517 1517 1516 1516 1515 1514 1513 1512 1510 1509 1508 1507 1506 1504 1502 1500 1498 1496 1494 1492 1490
1485 1488 1490 1493 1496 1498 1501 1503 1506 1508 1510 1511 1513 1514 1514 1515 1515 1516 1516 1516 1516 1516 1515 1515 1515 1514 1513 1512 1511 1510 1508 1507 1506 1505 1503 1502 1500 1498 1496 1493 1491 1489 1486
1481 1485 1488 1490 1493 1496 1499 1501 1504 1506 1508 1509 1511 1511 1512 1513 1513 1514 1514 1514 1514 1514 1514 1513 1513 1512 1512 1511 1510 1509 1508 1508 1505 1503 1501 1499 1498 1496 1493 1491 1488 1485 1483
1478 1481 1484 1487 1490 1493 1496 1499 1501 1504 1505 1507 1508 1509 1510 1511 1511 1512 1512 1512 1512 1512 1512 1512 1511 1511 1510 1510 1509 1510 1509 1506 1503 1501 1499 1497 1495 1493 1491 1488 1485 1482 1479
1475 1478 1481 1484 1487 1490 1493 1496 1498 1500 1502 1504 1505 1507 1508 1508 1509 1510 1511 1511 1511 1511 1511 1510 1510 1509 1509 1508 1508 1507 1507 1505 1503 1499 1497 1495 1493 1491 1488 1485 1482 1479 1476
1472 1475 1478 1481 1484 1487 1490 1493 1495 1498 1500 1502 1503 1504 1505 1506 1507 1508 1509 1509 1509 1509 1509 1509 1508 1508 1507 1506 1505 1504 1504 1502 1501 1499 1495 1492 1490 1488 1485 1482 1479 1476 1473
1469 1471 1474 1477 1481 1484 1487 1490 1492 1495 1497 1499 1500 1502 1503 1504 1505 1506 1506 1507 1507 1507 1507 1507 1506 1505 1505 1504 1503 1502 1501 1500 1499 1497 1493 1490 1487 1484 1482 1479 1476 1473 1469